Voltar ao catálogo

COSMOS 1275 DEB

AtivoPO
NORAD 17639·DEBRIS·🇷🇺 Russia

Lançado Jun 4, 1981 de Plesetsk Cosmodrome

Loading…

Próximas Passagens (próximas 24 horas)

TLE

AtualizadoSource: Space-Track

Época: Sep 14, 2026, 04:16 UTC

1 17639U 81053LJ  26257.17822083  .00000918  00000-0  10620-2 0  9995
2 17639  82.9958  52.3656 0153747 287.2137 196.3101 13.63355448 43092

Acompanhe COSMOS 1275 DEB em tempo real com AllMySat

Download on the App Store